RH
19 18 19 19 19 19 19 19 19 19 19 19 19 20 21 22 24 24 28 27 22 29 34 29 39 49 42 40 42 36 36 35 33 37 38 37 38 33 26 27 33 38 39 37 47 76 81 51 40 50 49 44 34 33 58 60 37 38 60 75 74 69 67 60 52 52 56 51 38 42 70 91 97 100 98 91 91 95 96 96 87 75 66 55 46 40
19 19 19 19 19 19 19 19 19 19 19 20 20 21 22 22 24 25 28 30 21 23 35 35 42 49 44 44 43 39 40 39 35 37 40 39 40 36 26 28 34 29 32 45 52 56 54 47 55 62 46 35 36 47 60 52 52 79 89 90 96 89 70 51 51 65 71 62 45 53 88 104 100 95 83 75 81 93 100 98 89 79 68 55 46 42
19 20 19 19 19 18 19 19 19 20 19 21 21 21 22 21 24 24 26 29 20 21 37 42 43 47 45 44 42 40 41 43 42 38 39 41 40 34 26 31 29 34 65 74 52 41 44 51 54 40 32 41 51 56 51 46 73 100 95 95 105 99 78 55 57 72 78 82 80 83 96 96 87 83 81 84 92 99 100 97 92 82 67 54 44 39
19 19 19 19 19 18 19 20 19 20 20 21 21 20 21 21 23 24 26 27 20 23 36 40 38 41 42 41 43 43 39 44 46 41 40 39 38 34 27 29 26 42 85 79 44 42 43 40 36 34 50 56 41 39 37 38 68 94 98 101 102 101 92 74 74 79 74 79 85 83 81 79 83 89 94 99 101 100 100 99 97 83 65 52 43 38
19 19 19 19 18 19 20 21 20 20 21 21 21 21 22 22 23 24 24 24 21 23 33 34 31 35 41 42 44 42 36 40 44 40 39 36 36 34 28 34 33 41 78 73 40 41 41 37 48 60 64 43 27 47 56 57 82 100 100 102 100 101 100 94 95 91 76 73 81 88 85 85 95 100 100 100 99 100 100 100 94 78 61 50 42 38
19 18 19 18 19 21 20 21 20 20 21 20 21 22 22 22 23 25 24 22 22 25 32 31 27 33 40 40 40 38 34 36 40 37 36 36 34 32 30 34 30 42 88 85 38 40 65 77 87 74 48 42 59 84 90 92 103 100 93 98 100 101 101 101 104 101 91 90 100 106 99 95 98 99 100 101 100 100 99 99 92 72 55 47 42 38
19 18 19 19 20 21 20 21 21 21 21 21 22 22 22 23 23 25 23 22 24 25 28 27 26 33 36 36 37 36 33 33 36 33 32 33 30 30 29 28 36 61 94 73 27 48 90 97 98 77 54 74 94 97 104 106 100 95 94 96 97 101 102 99 103 100 90 96 109 106 97 96 99 99 101 100 99 99 99 101 90 66 50 45 42 41
19 18 19 19 20 21 20 21 22 21 22 22 23 23 23 23 23 25 24 24 26 26 27 27 29 35 36 36 34 32 31 30 32 31 29 29 26 29 25 22 44 72 86 60 21 46 90 94 99 96 87 100 101 96 106 104 96 97 96 95 98 102 101 98 103 99 88 97 110 103 94 95 98 99 99 98 99 100 99 102 90 63 47 46 47 49
19 19 19 19 19 20 21 22 22 23 24 24 24 24 25 25 25 27 27 26 28 27 27 28 30 32 32 34 32 30 29 26 29 29 27 28 24 26 25 19 28 54 83 72 29 42 88 98 99 100 98 103 101 99 102 100 100 101 96 98 101 101 100 98 100 100 97 102 107 102 97 99 101 99 97 98 100 99 100 101 86 60 48 51 56 56
19 20 20 19 20 21 22 23 23 25 25 24 26 27 27 27 27 28 29 29 29 29 29 29 30 28 29 32 29 28 28 26 28 28 27 28 25 24 25 21 32 67 93 72 41 59 91 99 97 93 96 103 104 102 100 101 102 101 100 99 101 103 101 98 97 99 100 101 103 104 102 102 101 98 98 100 99 99 101 99 86 66 55 55 57 57
20 20 20 20 21 21 22 23 24 26 26 26 28 28 28 28 28 29 30 30 29 28 28 30 31 29 29 29 26 27 28 25 25 27 29 27 30 36 29 24 52 95 95 56 53 87 99 99 99 94 98 100 97 96 99 104 101 99 102 99 100 103 98 98 99 99 99 98 99 101 101 100 98 99 101 100 99 100 100 100 93 73 56 50 50 51
20 21 21 21 20 21 22 24 26 26 26 27 27 28 28 27 28 29 30 31 30 29 29 31 29 30 32 28 26 28 25 29 36 35 30 29 37 43 31 32 67 109 99 54 58 96 103 98 95 97 106 98 88 87 92 103 99 93 101 101 100 100 97 100 99 98 101 99 99 100 100 100 98 100 102 99 100 101 99 99 91 68 50 47 46 46
21 21 21 20 20 20 22 24 26 26 26 27 27 27 27 27 28 28 29 30 29 30 31 32 31 30 33 31 32 33 31 47 59 43 33 40 43 37 31 39 64 97 97 58 58 94 104 99 96 100 107 99 94 95 94 101 95 90 102 104 102 101 98 101 101 100 101 98 100 101 99 100 99 100 101 99 101 101 99 98 88 66 51 48 46 43
22 22 21 21 20 21 23 24 26 26 26 27 27 26 27 28 28 27 29 29 30 34 33 31 32 30 34 38 37 35 36 50 53 38 44 63 58 46 45 47 46 53 53 42 65 100 101 99 103 100 102 101 100 100 99 101 96 97 103 100 102 102 97 100 103 100 100 100 101 99 98 100 99 100 100 99 101 102 100 98 91 75 61 57 51 43
24 25 25 25 24 23 24 24 25 27 27 29 29 28 28 29 30 28 28 29 30 33 32 29 30 32 35 38 42 47 48 50 47 42 57 69 56 44 47 53 50 39 30 37 76 106 102 100 103 98 100 102 99 99 100 100 99 101 99 95 100 102 97 99 100 98 100 102 100 98 99 99 98 100 101 100 100 101 100 99 98 89 77 70 61 51
25 29 31 30 27 25 26 24 25 27 28 30 30 29 30 33 37 33 28 31 32 33 34 30 30 38 38 33 43 55 51 51 58 63 66 59 51 58 66 68 63 51 44 43 55 84 104 106 101 100 102 101 100 103 101 100 101 100 97 96 98 100 99 101 99 98 100 100 99 100 99 99 100 99 100 101 100 100 101 99 100 99 93 83 74 68
28 32 35 35 31 29 29 25 26 30 31 35 34 30 32 37 44 43 33 34 39 38 36 32 31 40 43 36 38 41 37 42 57 71 71 56 59 83 89 78 63 54 59 48 33 60 98 103 98 101 100 96 98 101 100 100 101 100 100 99 100 101 101 101 102 100 99 99 99 99 100 100 100 100 100 101 99 100 103 101 99 100 101 96 88 86
32 31 36 40 37 36 34 27 27 30 32 35 37 35 36 39 44 46 43 41 43 40 36 34 36 41 44 41 38 45 49 45 53 81 89 67 59 68 66 70 79 79 82 76 61 71 95 100 100 102 97 94 99 101 101 101 99 100 103 102 101 103 102 101 101 99 98 99 99 99 100 99 99 101 100 100 99 100 103 103 101 99 101 101 96 95
38 40 45 45 45 47 42 33 30 32 33 34 40 42 38 40 43 44 51 54 54 52 42 35 39 44 48 44 43 56 63 54 61 89 89 61 56 66 67 78 99 101 98 100 95 94 103 107 104 100 97 98 101 100 101 101 97 98 103 102 99 100 100 97 97 99 98 98 100 100 99 99 100 102 100 99 100 98 101 104 102 99 101 103 100 97
45 55 54 47 54 60 50 43 42 40 41 37 40 48 42 45 62 71 72 67 61 64 56 41 36 38 41 41 43 54 59 60 69 71 58 51 66 87 94 96 102 103 100 99 97 98 104 104 99 97 97 97 99 99 99 101 100 99 100 100 100 99 97 92 93 101 102 99 100 100 100 101 100 99 101 101 99 97 100 103 99 95 95 99 101 99
45 57 59 57 67 69 59 65 66 55 58 53 44 52 52 54 75 93 95 85 79 84 78 60 44 35 37 45 51 54 51 52 56 53 59 80 92 95 99 99 99 100 98 96 96 96 98 98 98 100 99 99 101 100 99 102 104 102 97 97 100 99 99 99 97 100 103 101 101 100 100 101 98 98 101 100 99 99 99 101 101 95 90 89 90 94
45 53 66 79 88 81 75 85 84 72 76 68 48 50 56 59 70 81 87 88 93 95 86 74 61 43 39 47 51 54 48 39 45 61 82 101 102 97 98 98 96 96 96 98 99 99 100 101 101 103 104 101 97 93 94 98 99 98 96 96 96 90 92 104 106 102 103 102 101 100 99 100 99 98 99 99 100 100 99 101 103 102 97 89 86 90
52 54 69 92 100 96 94 96 92 85 76 64 57 57 53 56 64 68 77 90 100 96 78 74 74 58 50 49 42 41 42 38 49 75 94 101 102 101 102 100 99 100 99 98 101 102 102 103 102 102 99 87 78 80 83 83 82 86 90 93 94 89 89 99 105 104 104 103 100 100 99 100 100 99 99 101 101 102 101 99 98 98 96 90 88 93
68 61 73 98 103 98 102 103 99 96 86 77 79 75 65 64 65 67 79 89 94 90 71 65 69 63 59 58 41 33 51 70 78 88 96 94 88 88 95 98 98 100 100 97 98 98 97 99 100 101 97 82 76 78 75 73 77 80 82 83 87 91 91 96 103 103 104 105 102 100 99 100 102 101 100 100 100 101 99 92 88 87 85 83 83 86
81 68 72 97 105 99 100 102 101 102 100 90 79 73 78 80 73 74 81 80 79 83 74 65 64 61 58 55 40 34 60 82 83 89 96 89 76 72 78 89 92 91 89 84 80 82 85 86 90 99 101 90 84 79 70 68 69 67 70 72 80 96 102 100 101 99 100 105 102 99 100 99 101 102 99 97 93 88 86 82 78 75 74 74 75 76
82 72 66 79 95 102 101 100 101 103 103 96 85 85 94 90 82 83 80 70 71 80 80 72 69 68 64 57 46 40 48 53 55 79 103 101 94 89 85 94 100 92 85 77 72 76 75 68 78 97 93 78 74 75 72 70 63 57 60 63 71 88 92 87 90 92 95 102 101 100 101 99 99 101 100 97 92 83 75 72 72 72 71 71 73 77
74 71 64 62 73 89 98 101 102 100 101 101 97 100 103 97 94 92 79 71 75 84 87 78 70 67 63 61 58 47 44 53 62 82 101 104 105 103 91 91 94 87 80 73 65 68 65 61 79 95 81 59 53 56 60 62 56 52 58 63 69 77 75 75 88 97 98 101 101 100 100 99 98 100 100 99 98 93 82 73 72 74 76 79 82 86
77 70 65 63 62 69 85 99 103 100 100 102 102 100 98 97 97 92 86 87 88 90 90 80 72 72 66 63 63 50 52 80 97 97 100 102 103 102 91 85 85 80 73 66 58 57 53 49 57 64 56 44 39 37 40 47 51 56 66 74 76 80 78 73 81 96 101 101 103 102 101 101 100 101 101 100 100 98 93 87 84 83 85 87 85 86
86 76 69 68 63 60 70 87 98 104 101 98 103 101 92 94 100 97 96 95 88 87 90 84 86 94 88 78 69 54 53 76 91 87 84 84 83 81 73 66 65 61 57 54 47 42 39 35 33 34 35 36 39 39 42 54 64 65 71 76 74 78 85 79 80 97 105 102 102 101 100 102 102 100 101 100 101 100 97 93 87 84 86 89 89 95
93 89 84 77 68 62 63 69 84 102 103 94 97 102 96 96 102 103 101 97 93 96 99 97 97 101 101 98 88 74 64 60 61 62 61 59 58 57 53 50 49 49 54 59 57 53 53 52 50 50 50 49 51 53 55 65 71 64 60 62 62 67 78 79 81 91 97 99 102 100 99 102 101 100 101 100 101 101 99 93 85 79 79 79 84 96
99 100 99 91 80 72 67 64 69 85 94 93 96 103 102 97 98 103 102 98 99 102 102 103 104 102 102 102 97 93 87 74 66 65 62 57 53 49 48 50 54 60 69 78 83 83 80 74 72 72 71 68 65 62 60 61 64 62 58 53 49 51 57 62 68 73 77 87 96 95 94 98 101 101 101 100 101 102 101 100 96 92 88 82 81 87
102 104 105 101 94 86 77 70 68 70 77 83 89 101 108 102 98 102 102 98 100 102 101 102 105 104 102 101 100 101 101 94 87 84 84 81 72 61 56 54 56 64 71 75 80 83 82 78 75 73 71 70 67 64 63 63 63 64 64 60 55 55 53 53 58 63 65 76 89 90 86 87 92 96 97 99 100 101 102 102 103 104 104 101 97 94
103 103 108 105 98 94 87 78 73 70 68 68 74 89 104 106 104 105 104 104 103 101 99 100 102 103 102 101 103 104 103 102 100 100 102 99 85 71 65 64 63 64 63 64 67 69 68 67 67 66 65 66 66 67 69 71 70 70 71 70 69 68 66 63 61 63 64 70 79 83 80 77 79 84 90 94 98 103 107 105 102 105 107 108 106 101
100 102 110 107 98 99 98 88 80 75 72 68 68 76 85 90 95 100 103 106 107 104 102 101 101 102 101 101 102 102 101 101 102 102 102 97 85 74 70 75 80 80 76 76 79 80 78 75 74 74 73 71 71 71 72 73 74 75 75 76 77 78 79 78 75 74 74 73 75 76 75 73 71 72 76 80 83 91 98 96 97 103 105 102 102 100
101 103 106 102 99 103 103 95 86 81 81 81 79 77 74 72 75 83 90 96 97 97 100 103 104 105 104 102 101 101 99 98 100 103 102 98 93 87 81 82 88 91 89 87 87 86 83 81 81 81 81 80 78 77 77 76 75 76 76 77 78 79 79 79 80 79 78 79 79 78 77 76 73 70 69 68 70 73 75 75 81 93 102 104 103 102
103 105 101 97 99 103 104 100 93 88 91 96 93 82 73 68 68 70 74 78 80 81 84 90 99 108 110 107 103 100 96 94 95 98 99 98 97 94 90 88 88 89 88 87 87 88 87 88 91 91 92 92 90 88 87 85 82 82 82 80 79 78 76 75 75 75 75 75 76 75 75 75 73 71 69 67 67 66 66 65 66 72 83 92 96 99
102 104 102 100 102 103 105 105 98 93 96 99 94 86 78 74 71 67 63 66 70 70 67 66 73 88 100 105 107 107 105 102 99 100 101 102 102 100 98 98 95 92 92 92 94 98 102 102 100 98 94 91 87 86 86 87 87 86 85 83 80 77 74 72 70 70 70 70 71 71 71 70 71 72 72 72 71 70 70 70 69 69 71 75 80 85
100 100 101 101 101 102 104 103 99 99 103 101 94 90 88 85 82 75 69 66 64 62 60 56 54 60 73 86 95 99 101 100 99 99 101 104 107 108 107 108 106 101 99 101 102 105 110 110 106 102 97 91 86 82 77 74 75 76 76 76 74 71 69 68 67 66 65 66 66 66 66 66 68 69 69 70 72 72 73 73 75 76 77 78 80 82
101 100 101 101 101 102 102 101 100 101 105 105 101 96 90 87 87 81 74 72 67 62 61 60 55 51 55 64 72 76 78 79 80 85 91 96 101 105 108 110 110 107 103 103 102 100 102 105 108 108 104 99 97 95 88 80 73 70 69 67 65 63 61 60 59 58 57 58 58 58 58 58 59 59 58 59 60 61 64 67 69 71 73 74 76 78
104 102 102 102 102 103 103 102 102 103 102 103 105 101 89 81 80 78 75 72 68 64 65 68 68 64 59 57 58 60 62 65 70 77 82 83 84 86 89 94 98 99 97 97 99 101 100 100 102 105 106 104 102 102 100 97 91 85 80 74 70 66 64 63 61 57 53 50 48 48 48 47 46 45 44 44 45 47 50 53 56 59 60 60 62 64
101 101 103 103 103 102 101 100 101 103 103 102 103 101 92 83 79 80 81 78 73 71 72 73 75 75 72 69 68 66 65 66 69 73 73 72 71 70 71 73 76 80 82 84 89 96 102 104 103 102 103 102 101 101 101 101 100 99 96 92 88 82 78 77 76 72 66 59 54 52 51 49 46 42 39 37 35 34 36 39 42 45 47 48 49 51
91 95 102 103 104 104 102 101 102 101 100 101 101 96 91 88 85 83 84 85 84 85 85 83 83 81 77 76 75 74 73 72 71 71 70 68 68 69 70 68 68 70 73 75 78 82 88 95 100 101 101 101 101 102 100 99 100 100 100 100 99 96 91 86 84 83 79 75 72 69 68 67 64 60 57 54 48 41 37 35 35 37 39 41 43 44
82 90 98 99 102 105 105 106 106 102 98 101 104 100 95 92 90 86 85 84 87 93 96 99 101 96 87 81 77 74 73 73 75 76 74 71 70 70 71 71 71 71 72 73 74 75 77 82 88 91 94 95 98 100 101 102 102 101 102 102 102 101 98 93 91 89 88 88 88 88 89 91 89 86 83 79 72 64 56 50 47 45 44 44 45 47
67 76 85 88 93 99 102 103 103 102 100 103 106 106 101 95 91 89 88 85 86 92 100 106 108 107 103 98 92 83 75 70 69 70 72 73 73 73 73 74 74 76 76 76 76 75 75 77 79 82 84 85 87 89 91 92 93 92 92 92 94 97 99 99 99 99 98 97 96 94 93 92 91 90 87 84 80 76 71 68 65 61 58 56 56 56
57 61 65 72 80 87 90 92 93 96 100 103 105 104 100 95 91 88 87 86 84 86 93 100 103 104 103 100 95 91 85 78 74 72 72 72 73 74 74 74 74 74 75 75 75 75 74 75 76 79 83 84 85 85 85 85 84 82 79 77 77 79 81 83 86 88 90 92 91 90 89 88 87 88 88 88 88 87 86 85 83 80 78 77 76 75
47 51 53 57 65 73 79 83 85 89 93 97 99 99 96 94 92 88 85 83 81 80 83 87 90 92 92 90 87 89 90 90 90 89 87 85 83 81 79 77 76 74 72 72 73 72 71 70 70 71 73 77 79 82 85 87 88 89 88 87 86 85 85 87 89 91 92 93 93 92 91 89 88 87 86 86 85 84 84 84 83 82 81 80 80 79
42 43 44 46 50 56 62 68 73 77 81 84 88 90 89 88 89 89 86 82 80 81 81 81 82 84 86 86 85 85 87 90 93 96 97 99 98 96 94 91 87 85 83 84 85 85 82 80 78 76 75 74 73 73 74 75 76 78 80 81 83 84 86 87 88 88 89 88 86 85 84 83 82 81 79 78 76 73 72 71 70 70 71 71 71 71
41 39 40 42 43 45 47 50 53 57 61 65 70 75 78 81 83 85 86 83 80 80 81 81 80 79 80 80 80 80 80 82 86 89 93 96 99 101 103 104 103 102 102 102 103 103 102 100 100 98 95 92 89 86 83 80 77 74 72 72 73 75 77 77 76 74 73 73 73 73 73 72 72 72 72 72 71 70 69 67 64 62 62 61 60 59
34 34 36 38 38 39 41 42 45 47 49 51 54 58 63 67 70 71 73 73 73 74 77 80 80 79 78 77 76 75 75 75 78 80 84 87 92 97 101 104 105 107 109 110 110 110 109 109 110 108 103 100 97 94 91 88 86 84 83 82 82 83 84 84 82 80 77 75 73 71 68 65 62 61 60 59 59 58 57 55 53 51 50 48 46 45
31 31 32 32 32 32 34 36 38 40 44 47 51 54 56 58 59 61 61 62 63 66 69 73 75 75 76 76 74 73 71 71 72 74 76 79 84 90 95 98 99 100 103 105 105 105 105 106 105 100 95 92 88 85 83 80 79 79 80 80 80 78 77 77 77 78 77 75 71 67 64 61 58 55 53 50 47 46 45 45 44 43 41 40 39 38
35 33 32 30 30 29 30 31 31 32 34 38 42 46 50 51 52 54 56 57 58 60 61 62 63 64 66 67 68 67 65 66 67 67 65 65 69 74 79 82 83 84 85 86 85 85 86 87 85 82 79 76 73 71 70 68 67 67 67 66 64 63 63 62 62 62 61 60 58 56 54 52 51 49 47 46 44 42 41 41 40 40 38 37 36 34
Wind_Speed
51 52 52 53 55 57 58 59 60 63 63 63 62 62 63 62 62 62 62 64 59 54 57 54 53 60 59 58 61 59 58 60 58 57 58 56 57 57 53 50 49 49 49 48 48 49 51 52 51 50 50 51 51 51 47 45 43 41 42 47 48 44 42 42 43 42 42 43 40 38 37 37 38 37 37 38 39 39 38 37 38 39 40 41 42 43
48 49 50 52 53 54 56 57 59 60 59 59 60 61 62 61 62 62 61 67 60 50 55 56 55 60 59 58 60 57 55 58 57 55 55 55 56 56 51 47 47 46 46 47 48 48 49 50 48 47 49 50 50 47 45 42 34 28 32 41 44 42 42 43 42 40 40 39 37 36 38 39 39 40 41 40 39 38 37 38 39 40 40 41 41 40
46 48 49 50 52 52 53 54 56 56 56 58 59 60 61 61 62 61 62 66 57 47 55 58 57 61 59 58 57 55 53 55 56 54 53 53 55 54 48 45 43 39 41 46 46 46 47 48 48 49 50 49 46 44 43 36 24 21 24 34 42 42 43 43 41 40 38 36 33 33 37 39 39 39 38 36 35 36 38 40 40 40 41 41 41 40
45 47 48 49 50 49 50 52 54 54 55 57 58 59 60 60 60 61 62 64 56 51 58 61 59 58 57 55 54 55 53 51 55 55 52 52 53 51 46 42 38 35 42 47 43 42 44 45 46 47 46 45 44 43 39 30 25 23 24 34 44 44 43 43 40 39 37 34 33 33 36 36 34 33 33 33 35 37 39 40 40 41 41 41 41 40
44 45 46 47 47 46 48 51 52 53 54 55 56 56 57 58 58 60 62 62 57 53 58 62 58 55 55 55 55 57 53 50 55 54 51 51 50 48 43 39 35 34 41 44 39 38 40 40 41 42 43 42 40 35 27 21 21 22 24 33 41 41 42 41 38 35 33 32 32 32 32 31 29 30 33 35 37 39 40 40 41 42 41 40 39 39
43 43 44 44 44 46 49 51 51 52 53 54 54 54 56 57 57 59 61 60 56 55 59 61 57 54 56 57 56 57 53 50 54 53 50 49 47 45 41 37 33 31 38 42 37 34 34 34 35 38 40 36 29 23 16 12 15 20 23 31 38 40 40 37 34 32 30 30 31 30 29 28 29 31 34 36 38 40 41 41 41 39 38 38 38 38
42 41 42 42 43 46 48 49 50 50 51 51 52 53 54 55 55 57 59 57 56 57 59 59 56 55 57 57 57 57 54 51 53 52 49 48 45 44 40 35 31 32 39 41 34 29 26 27 32 36 35 28 22 18 14 13 19 25 27 32 39 42 39 36 34 32 31 31 30 30 29 29 30 32 34 37 39 41 42 41 40 37 36 36 36 36
41 40 41 42 44 46 47 47 48 49 49 49 50 51 52 53 53 54 55 54 55 57 57 56 56 55 56 57 57 57 54 51 52 50 49 47 44 43 40 33 31 35 39 36 28 24 21 22 31 36 30 23 19 17 17 22 30 35 35 38 42 43 42 39 35 33 34 33 31 30 30 31 33 34 35 37 40 42 42 40 38 37 36 35 34 34
39 38 41 43 44 44 45 46 47 47 47 47 48 48 49 50 50 51 52 53 54 55 54 54 55 55 54 55 55 55 53 51 50 49 49 47 45 43 40 35 33 34 34 30 23 21 21 24 29 33 29 23 19 19 22 28 35 38 41 44 47 46 41 37 33 32 34 33 32 32 32 32 33 34 35 38 40 41 40 37 35 33 33 32 31 31
37 37 41 42 42 43 44 45 45 45 46 46 45 46 47 48 48 49 50 52 53 53 52 52 54 55 54 54 53 52 52 50 48 47 46 44 43 40 38 34 29 28 31 25 17 17 22 28 31 30 32 30 24 23 27 33 36 38 42 47 50 47 40 35 33 32 32 31 32 34 33 32 32 33 34 35 36 35 33 32 30 29 29 30 30 30
36 38 40 41 42 44 45 44 43 45 45 44 44 46 47 47 47 47 48 50 52 51 50 51 52 52 52 53 52 49 49 48 46 45 43 40 38 35 34 29 23 27 32 22 14 15 23 30 25 20 33 31 21 24 31 39 43 42 45 50 52 48 41 37 35 33 32 31 31 33 32 30 29 30 31 30 30 29 29 29 27 27 27 28 28 29
36 38 40 43 44 44 43 42 44 47 46 44 45 47 46 46 47 47 48 50 50 48 48 50 50 49 50 51 48 46 45 42 41 41 39 37 36 33 31 27 26 31 31 21 19 23 29 29 20 18 32 29 21 32 37 37 41 45 48 50 50 49 44 40 39 37 36 35 32 31 31 31 31 31 30 29 29 29 29 29 26 24 24 24 24 25
36 38 40 43 43 42 42 43 46 47 45 44 46 46 45 46 47 46 48 49 47 46 47 48 48 47 48 47 45 42 37 35 37 37 34 33 34 33 30 29 33 35 31 25 28 33 36 34 32 37 42 34 32 41 38 34 40 44 46 46 45 47 47 44 43 42 41 40 37 35 36 36 36 36 36 36 36 34 31 29 26 25 23 21 19 20
35 37 39 40 41 41 42 44 44 45 44 44 46 45 45 46 46 46 47 47 46 46 48 48 47 46 45 43 42 40 35 36 38 35 30 29 30 30 28 29 32 34 31 30 33 38 39 39 39 42 43 41 44 47 43 44 46 43 45 45 42 45 48 47 47 48 47 45 43 41 39 40 41 41 43 44 42 38 34 30 27 26 24 22 21 21
34 35 36 38 40 41 43 44 43 43 43 44 45 44 44 45 46 46 47 47 47 47 48 47 45 45 44 42 38 35 33 35 34 31 30 30 30 29 27 27 27 28 30 32 36 40 41 41 42 41 41 45 50 49 47 49 50 49 49 47 42 42 45 47 47 49 50 49 48 46 42 41 42 42 43 45 43 41 38 34 30 28 27 27 27 27
34 34 36 38 40 41 43 43 42 42 43 44 45 44 44 44 45 46 46 46 46 46 47 46 43 42 43 42 38 34 34 34 31 30 30 30 30 29 26 26 27 27 30 35 40 43 43 44 44 39 38 42 47 51 52 51 51 53 54 53 50 46 46 48 49 50 52 51 49 49 47 45 44 43 43 44 42 41 40 37 35 34 34 34 34 34
34 35 36 37 39 39 41 42 41 42 43 44 45 44 44 44 45 47 47 46 46 46 46 46 43 41 41 41 39 38 37 36 33 31 30 30 30 29 28 28 27 27 29 34 41 45 45 44 42 38 35 37 44 51 54 53 53 53 54 57 57 54 52 52 51 51 52 52 50 49 49 48 46 46 45 45 43 41 40 40 41 41 41 40 40 38
35 36 35 36 37 38 41 42 42 43 44 44 45 44 45 45 46 47 47 46 47 47 46 45 43 42 41 39 38 37 35 35 34 31 30 30 30 31 32 30 27 27 28 32 40 47 48 44 41 39 35 36 42 48 51 53 53 53 55 55 56 56 54 53 53 52 52 52 51 48 47 48 47 47 47 46 45 43 41 41 42 44 45 44 44 42
35 35 35 35 35 36 39 41 40 42 43 44 44 44 45 45 45 45 46 47 47 46 47 46 44 44 42 39 36 35 33 33 33 32 31 29 27 29 30 29 28 29 30 32 37 44 47 45 42 38 34 35 40 45 47 49 51 54 56 55 53 50 45 46 51 53 54 54 54 52 50 50 49 48 47 47 46 45 43 42 43 45 46 47 47 47
35 36 36 35 35 36 38 38 38 41 42 43 44 45 45 44 42 43 46 47 47 46 47 47 46 45 43 40 37 36 35 35 35 36 34 31 29 28 28 29 29 29 30 33 36 39 42 44 44 41 41 43 46 47 46 45 48 54 57 56 52 45 40 42 46 49 51 53 54 55 54 54 52 49 48 48 48 47 46 45 46 47 48 49 50 51
36 36 35 34 34 37 36 35 37 39 41 43 44 44 45 45 44 44 45 44 45 46 48 49 47 43 42 43 41 39 39 38 36 35 32 29 29 31 31 33 34 32 34 38 39 39 42 45 49 52 55 58 58 56 52 50 50 53 54 54 54 51 48 48 48 50 53 54 54 55 56 56 54 52 50 49 49 49 49 49 50 50 50 52 54 55
35 35 35 33 33 35 35 36 39 39 41 44 46 45 46 46 46 47 46 43 44 46 48 49 48 45 44 46 44 43 42 38 34 33 32 31 33 34 34 35 35 32 37 44 46 47 49 51 54 58 62 65 64 60 57 56 57 56 54 52 53 54 53 52 51 51 55 59 58 56 57 58 58 56 54 53 52 51 51 53 54 54 54 54 56 58
36 36 35 33 33 33 34 36 39 42 43 43 43 45 46 46 47 47 47 46 47 49 49 48 48 46 47 47 45 42 40 36 33 33 36 39 40 41 40 40 39 38 42 49 52 55 56 56 56 58 62 65 64 62 59 57 58 60 58 55 54 55 56 57 57 55 57 60 60 59 59 60 61 61 60 58 57 55 54 56 57 58 59 59 59 60
37 37 34 33 34 33 34 36 39 41 42 41 42 44 45 46 47 47 48 50 50 49 49 50 50 49 48 46 45 41 37 34 35 35 38 43 45 46 47 48 48 50 54 57 58 59 60 57 55 56 59 62 63 62 60 57 57 58 58 58 56 53 54 56 58 60 61 62 62 61 60 61 63 65 64 63 62 61 60 60 60 61 62 64 64 64
39 39 38 37 37 36 36 38 38 38 40 42 44 44 43 45 47 47 48 51 51 49 50 51 50 50 48 46 44 41 38 37 36 33 35 41 45 49 53 52 51 54 57 61 62 62 60 58 54 53 54 56 58 60 59 56 55 54 55 55 49 43 45 50 54 58 59 60 62 62 62 63 64 66 68 67 66 66 65 65 65 65 65 66 67 67
42 42 42 43 42 40 39 38 39 39 39 40 41 40 42 46 47 48 50 51 50 51 52 52 50 48 46 45 44 43 41 40 39 32 30 36 40 45 52 52 52 55 56 58 59 59 60 57 52 52 54 53 53 55 56 55 55 54 55 56 53 49 51 56 59 61 61 61 61 61 61 62 61 63 66 68 69 70 70 69 68 67 67 66 67 67
45 43 43 45 45 45 43 40 40 41 40 39 39 40 42 45 47 49 51 50 48 49 51 52 52 50 48 46 47 45 40 39 40 38 37 41 45 48 52 52 53 55 56 57 58 57 59 57 48 46 51 55 57 58 58 57 57 56 55 55 56 57 60 62 62 62 62 62 60 58 57 56 54 54 59 64 68 70 71 71 70 69 68 66 66 66
45 44 43 44 45 46 46 44 42 43 43 43 42 43 44 45 47 48 48 48 48 49 49 48 48 49 49 49 50 47 41 39 42 46 50 53 54 55 55 55 57 58 57 59 59 59 61 61 56 52 54 58 60 61 62 61 60 58 54 50 51 52 55 60 63 62 60 60 61 61 59 57 55 55 59 64 69 71 72 72 72 71 71 70 69 68
45 44 42 43 45 45 47 48 47 47 48 48 47 47 47 44 45 46 47 49 49 49 49 47 45 45 46 48 50 50 48 48 49 55 60 61 61 61 60 59 60 62 62 63 63 64 64 64 63 63 62 62 61 61 61 60 60 59 57 56 55 54 52 53 55 55 55 57 63 67 67 65 64 64 67 69 71 72 74 74 74 74 74 73 71 70
46 45 43 44 44 45 47 49 50 51 53 51 49 50 48 44 43 42 41 43 46 48 51 51 50 48 48 49 50 50 52 53 55 58 62 63 64 65 63 62 62 63 63 62 62 62 61 60 60 60 61 61 61 60 59 58 58 59 59 59 59 58 56 53 52 54 56 57 62 69 72 72 71 71 71 71 71 72 73 74 75 76 76 75 73 71
48 47 46 46 45 45 47 49 51 53 55 53 51 51 51 48 46 41 35 33 37 42 46 50 52 52 52 52 52 51 52 53 55 58 60 61 62 62 61 61 62 63 62 61 59 59 59 59 59 59 59 60 61 61 61 61 61 61 61 62 62 62 63 62 61 63 63 62 65 70 73 75 75 74 74 74 73 72 71 71 72 73 74 74 74 74
50 49 49 48 47 46 47 49 52 53 54 54 53 53 54 53 51 48 42 38 38 39 40 44 49 52 52 52 52 52 52 52 53 55 56 57 59 60 59 59 61 62 62 61 62 62 63 62 61 61 61 62 63 64 64 65 65 66 66 66 66 66 67 66 66 66 67 68 70 72 73 73 74 75 76 76 75 74 72 70 69 69 70 70 71 71
53 52 51 52 50 48 49 50 52 53 53 54 54 55 57 57 55 54 53 50 49 48 45 44 47 50 52 53 53 53 53 54 55 56 58 59 60 60 60 60 60 61 60 61 62 64 65 64 63 63 63 64 65 65 66 66 67 68 68 67 67 67 68 68 68 68 69 70 72 74 74 74 73 72 72 73 74 73 72 71 70 68 67 68 70 70
55 54 53 54 52 51 52 52 52 52 51 52 54 56 58 59 58 58 58 59 59 58 55 53 52 53 53 54 54 54 53 54 56 59 60 61 61 59 58 58 58 58 58 58 59 60 61 60 60 60 61 62 62 62 63 64 65 65 66 66 66 67 67 68 68 69 70 71 73 75 76 77 75 73 72 72 73 72 71 69 66 64 61 60 62 66
57 57 57 56 53 53 54 54 53 52 51 52 55 58 59 59 59 59 60 62 62 62 61 59 58 58 57 57 56 55 54 54 56 59 60 61 59 58 57 57 57 57 58 58 58 59 59 58 58 59 59 60 60 61 61 62 62 63 63 64 65 66 66 67 68 69 70 71 73 74 75 77 77 76 76 76 76 76 74 71 69 68 65 63 64 68
59 60 60 57 55 55 56 56 55 53 52 54 58 60 59 58 59 60 60 61 62 62 63 62 61 62 63 62 61 60 59 58 58 59 60 61 60 60 59 59 59 59 59 59 59 59 59 59 60 61 61 61 61 62 61 61 62 62 63 64 65 65 65 66 67 69 70 71 72 73 74 75 76 75 75 76 76 76 76 75 74 74 74 75 76 77
60 61 60 58 57 58 59 59 58 56 56 59 61 60 59 59 60 60 60 60 61 62 62 61 61 63 65 65 65 65 64 64 63 62 62 62 62 62 62 62 62 62 61 61 60 60 61 62 63 63 64 64 64 63 63 63 64 64 65 66 66 66 66 66 68 69 69 70 71 72 73 73 74 74 74 74 74 74 74 74 74 74 75 77 78 79
62 62 62 61 61 62 62 61 60 59 60 63 63 61 60 60 61 61 60 60 61 61 60 59 59 60 62 64 66 67 67 66 66 65 65 65 65 65 65 65 65 64 64 63 63 62 63 64 65 65 66 66 66 66 66 66 66 66 67 68 68 68 68 68 69 70 70 70 71 72 73 72 73 73 73 73 73 73 73 74 75 74 75 76 77 78
66 64 64 65 64 65 65 64 62 63 64 64 64 65 65 64 64 64 62 62 62 60 59 59 59 58 59 60 62 64 65 65 64 65 66 67 67 67 67 67 67 67 67 67 66 65 65 65 65 67 68 68 68 69 70 70 70 69 70 70 70 71 70 71 71 72 72 72 72 73 73 73 74 74 74 74 74 73 73 74 74 75 75 75 76 77
69 68 68 68 68 68 68 66 66 66 67 66 67 69 69 68 67 66 65 64 64 61 58 59 59 59 59 59 59 60 60 60 61 63 66 67 67 68 68 68 69 69 69 68 68 67 67 67 67 67 68 69 69 70 71 72 72 73 73 73 73 73 72 73 73 74 73 73 73 73 73 74 74 74 75 75 75 74 73 73 74 75 75 75 76 77
72 71 70 71 71 71 70 69 69 70 70 70 70 71 72 71 69 67 66 66 65 61 60 60 61 61 61 60 60 60 60 60 61 63 65 66 66 66 66 67 67 68 68 68 68 68 68 68 68 68 69 70 71 71 72 72 73 74 74 75 75 75 75 75 75 76 76 76 75 75 75 76 76 75 74 74 73 71 70 70 71 71 71 72 72 73
73 71 72 73 74 74 72 71 73 74 73 73 74 74 73 73 71 68 68 68 66 63 62 63 63 63 64 63 63 63 63 62 63 64 65 66 65 65 66 66 66 66 66 67 67 67 68 68 69 70 70 71 72 73 74 75 75 75 76 76 77 78 78 78 78 78 78 78 79 79 79 80 80 79 78 78 77 74 71 69 69 69 69 70 70 70
74 73 74 75 75 75 75 75 77 77 75 75 76 76 75 74 73 72 71 70 68 66 65 65 65 66 67 66 66 67 66 65 65 65 66 66 66 66 66 66 66 66 67 67 67 68 68 69 70 71 72 73 74 76 77 78 79 79 80 80 80 81 82 82 82 82 82 82 82 83 83 83 84 83 83 83 82 81 79 77 75 74 73 73 73 72
76 75 76 76 76 77 77 78 79 78 77 77 78 78 77 77 76 75 75 73 71 69 68 68 69 69 70 70 70 70 70 69 68 68 68 68 68 68 68 68 68 68 68 69 69 70 70 70 71 72 73 74 75 76 78 79 80 81 81 81 82 83 83 84 84 84 84 85 85 85 84 84 84 84 84 84 85 85 84 83 82 81 79 78 78 77
79 78 78 77 77 78 79 79 80 79 79 80 80 81 81 80 79 78 77 76 75 73 73 73 74 74 74 74 74 74 74 73 71 70 70 70 70 70 70 70 70 70 70 71 71 72 72 72 72 73 73 74 75 76 77 78 79 80 81 81 81 81 81 81 82 82 83 84 84 84 84 84 84 84 85 85 86 86 86 86 86 85 84 83 82 82
79 80 80 80 80 80 81 81 81 81 81 82 82 83 83 82 81 81 80 80 79 77 77 77 77 78 78 78 78 77 76 76 75 74 73 73 73 73 73 73 73 73 73 73 74 74 74 74 74 74 75 76 76 77 78 79 80 81 81 81 81 80 80 80 81 82 83 84 84 85 85 86 86 86 87 87 88 88 88 88 88 88 87 87 87 87
74 77 79 80 81 83 84 84 84 84 84 84 84 84 84 83 83 83 83 83 81 81 80 80 80 80 81 81 81 80 79 78 78 77 77 76 77 77 76 77 77 76 76 76 77 77 77 77 77 77 78 78 79 79 80 80 81 81 81 81 82 82 82 83 84 84 85 86 86 87 87 87 88 88 89 89 90 90 90 90 90 90 89 89 90 90
70 72 73 75 78 80 82 84 85 86 86 86 85 86 86 86 86 86 86 86 85 84 83 83 83 83 83 84 83 83 82 82 81 81 80 80 80 79 79 80 80 80 80 80 81 81 81 81 81 82 82 82 83 83 83 83 84 84 83 83 83 84 85 86 86 87 87 87 88 89 89 89 90 90 90 91 91 92 92 92 92 92 91 91 91 91
65 66 68 70 72 74 76 78 80 82 84 85 85 86 87 88 88 88 88 88 87 86 86 86 86 86 86 86 86 86 85 84 84 83 83 83 82 82 82 83 84 84 84 84 85 85 85 85 85 86 87 87 87 87 87 87 87 87 87 87 88 88 89 89 90 91 91 91 91 92 92 92 92 92 93 93 93 93 93 93 94 93 93 93 93 92
59 61 64 66 68 69 70 71 73 75 77 79 81 84 87 88 89 89 89 89 89 88 88 88 89 89 89 89 88 88 87 86 86 86 86 85 85 85 85 86 87 87 88 88 88 89 88 89 89 90 90 90 90 90 90 90 90 90 90 91 92 92 92 92 93 93 94 94 95 95 95 95 95 95 95 94 94 93 93 93 93 93 93 93 93 92
54 56 59 61 62 63 64 66 68 69 70 72 75 78 81 83 85 86 87 88 88 88 89 89 89 89 89 89 90 90 89 88 88 88 88 87 85 85 86 88 89 89 90 90 90 90 90 91 92 92 92 92 92 92 92 91 91 92 92 92 93 93 93 93 94 94 94 95 95 95 95 95 95 95 95 95 94 93 92 91 91 92 92 92 91 90
Wind_Direction
248 247 245 244 242 241 241 241 240 240 240 242 242 242 243 242 243 243 245 247 242 241 247 246 245 248 248 248 250 249 249 250 250 252 254 255 256 257 255 255 254 253 258 260 257 256 263 269 270 271 272 273 275 276 278 283 287 286 283 282 280 278 278 278 277 276 274 272 268 265 263 260 257 258 265 270 272 274 275 277 278 279 281 281 281 280
247 246 244 242 241 240 240 240 239 240 240 241 240 240 241 240 241 241 242 245 243 239 245 246 244 247 248 247 249 249 250 252 252 251 254 255 256 256 256 255 257 260 263 261 258 260 265 269 271 273 274 275 276 276 278 284 286 277 278 280 278 279 279 278 276 275 274 272 266 260 255 254 257 263 270 274 275 276 279 283 285 287 288 288 288 285
246 244 242 242 241 240 239 239 239 239 238 238 238 238 239 239 240 241 241 245 244 239 243 244 243 246 247 247 250 250 250 253 255 253 253 254 256 257 256 256 259 263 263 261 262 266 267 270 272 273 274 275 276 277 278 280 271 253 260 270 274 281 283 279 275 273 272 270 265 258 255 257 263 269 272 275 277 280 283 286 288 291 293 293 291 289
244 243 242 241 240 239 239 239 238 237 236 236 237 237 238 239 239 240 241 244 243 238 242 244 242 245 249 250 251 251 249 251 255 254 253 254 256 258 259 258 258 256 257 260 265 266 268 271 272 273 274 276 277 279 279 275 264 252 251 262 270 277 281 280 276 271 270 268 265 262 261 263 266 269 272 276 281 283 285 287 290 292 294 293 291 289
243 242 241 240 240 238 237 237 236 236 235 236 236 237 238 238 239 240 241 243 243 240 243 245 244 245 249 250 250 251 248 248 252 254 254 256 257 259 261 260 259 259 260 263 267 269 273 273 270 273 277 279 280 280 279 274 269 264 259 263 268 272 276 276 274 272 270 268 266 264 263 261 260 264 270 275 280 283 286 290 292 293 292 291 289 286
243 241 240 240 238 236 235 235 235 234 234 235 235 236 237 238 238 240 242 242 242 241 243 246 245 246 248 249 250 251 250 250 252 254 255 256 258 260 261 260 261 259 257 263 269 269 274 275 272 277 281 282 282 280 279 270 257 252 253 259 263 269 273 271 270 272 272 268 264 261 256 253 256 262 269 274 278 282 287 290 290 289 288 286 285 282
242 240 239 238 236 236 235 235 235 234 234 234 235 235 236 238 238 240 243 243 243 242 244 246 246 246 248 249 250 251 251 251 253 255 256 256 258 260 260 260 262 257 253 262 266 262 272 277 274 280 283 282 281 276 267 251 238 234 238 251 259 263 266 265 267 270 268 265 261 257 251 247 253 262 266 272 278 283 287 289 288 286 284 282 280 279
242 239 237 236 235 235 235 235 235 234 234 234 234 235 236 237 238 241 243 243 244 244 245 247 246 246 247 249 250 252 252 252 254 257 257 258 258 258 258 254 251 252 256 263 259 247 255 263 266 277 281 279 282 272 247 234 231 229 228 238 249 254 257 261 265 268 266 261 257 255 249 244 250 256 262 272 280 285 287 287 285 284 282 280 278 276
242 239 236 236 235 235 235 234 235 234 234 234 235 236 237 238 238 240 242 242 243 244 245 246 247 247 248 250 251 253 253 254 255 257 258 259 259 258 258 253 246 248 255 263 254 233 233 240 252 269 274 270 272 264 248 236 230 229 227 232 242 248 253 257 261 267 266 260 258 255 248 244 245 251 261 273 281 284 284 283 282 282 281 279 278 276
242 238 236 236 235 234 234 233 233 234 234 233 234 236 236 237 237 239 241 242 243 243 244 246 248 248 249 250 251 253 255 255 255 257 258 259 260 259 256 252 245 245 250 253 243 220 223 230 234 250 264 265 265 264 261 253 242 234 233 237 244 247 250 254 259 265 264 262 264 257 247 242 243 252 263 273 278 279 279 279 279 280 280 278 277 276
241 237 235 234 232 232 232 232 232 233 233 232 233 234 235 236 237 238 240 242 242 243 244 245 247 248 250 250 251 252 254 255 256 258 258 259 260 257 251 243 232 238 245 240 227 208 212 225 225 245 268 271 269 263 258 253 248 241 239 243 245 247 250 253 256 260 259 261 265 257 246 242 245 255 263 268 276 278 276 277 277 279 279 278 277 276
241 237 234 232 231 231 231 230 231 231 231 231 231 233 234 235 235 236 238 240 242 243 243 245 246 247 250 251 251 252 254 256 256 254 255 256 254 250 248 235 219 230 239 228 220 209 207 215 189 195 247 253 242 244 241 240 246 246 245 246 244 246 251 251 251 255 254 255 259 252 245 245 250 257 262 268 277 279 276 275 274 278 280 280 280 278
241 238 235 234 233 232 231 230 230 232 231 231 232 232 234 235 236 236 238 240 241 242 243 244 246 246 249 251 251 251 252 253 253 251 252 252 251 251 248 231 216 225 232 221 216 211 208 210 187 193 224 227 222 236 236 237 248 249 247 247 246 248 250 248 248 252 253 254 255 252 249 251 254 258 261 269 276 277 276 274 271 274 277 281 285 282
243 241 238 236 235 232 232 231 231 233 232 232 234 233 234 236 237 237 238 240 240 241 241 242 244 245 247 249 250 250 249 249 251 252 252 249 248 247 243 233 226 229 228 215 211 212 211 212 208 213 225 222 222 232 234 241 250 249 248 251 253 253 252 249 249 252 254 255 256 257 256 256 258 258 260 265 271 272 272 272 270 269 271 276 282 281
242 241 239 237 234 232 232 232 231 232 232 233 234 234 234 236 238 238 238 240 240 240 242 243 244 246 246 247 250 250 246 246 249 250 248 247 247 244 240 239 237 233 224 211 210 217 217 215 218 224 230 228 229 234 237 245 252 251 250 253 255 254 251 250 251 254 255 256 258 261 261 260 259 259 260 262 265 266 267 269 269 268 268 272 276 277
242 239 237 235 233 232 233 232 231 232 232 233 234 233 233 235 238 239 239 240 241 242 243 244 244 245 247 246 246 245 243 244 244 242 242 246 247 242 234 232 231 227 219 212 213 220 221 221 222 227 236 238 238 241 243 247 250 250 249 251 253 253 251 251 253 255 256 256 258 261 262 260 259 259 260 261 262 262 262 263 266 269 270 273 275 276
242 238 236 236 234 232 233 232 230 231 231 232 234 233 233 234 236 238 239 239 241 241 242 244 243 243 245 245 245 246 246 243 239 239 241 241 238 234 231 232 233 228 220 216 217 219 221 224 225 228 237 240 241 244 244 245 247 248 248 249 252 253 254 254 255 257 257 257 259 261 262 261 260 259 260 262 262 261 260 261 265 267 270 273 275 276
242 240 237 236 234 233 234 233 230 231 230 231 234 234 233 234 235 238 240 240 241 242 243 243 243 244 244 243 244 245 244 241 239 239 238 236 234 235 235 235 233 227 224 222 219 218 221 225 230 232 234 238 243 246 245 246 248 248 248 249 251 254 259 261 260 259 258 257 259 261 261 261 261 261 261 262 263 263 264 266 266 267 268 270 273 275
242 241 238 236 235 234 235 234 233 233 233 232 233 234 234 235 237 239 240 241 242 243 244 243 241 242 243 241 240 241 241 242 240 234 232 234 236 234 230 225 222 220 221 222 220 220 223 228 234 236 233 236 242 244 247 252 254 253 250 250 251 253 257 262 263 262 258 255 257 259 260 260 262 263 262 263 264 264 267 268 268 268 269 270 272 274
239 239 238 236 233 233 235 235 234 235 235 234 233 234 234 234 237 240 241 241 242 244 245 244 242 242 243 243 240 238 236 238 238 236 236 238 234 225 218 214 211 212 219 227 231 231 232 234 236 235 231 233 238 242 246 250 254 255 253 251 252 248 241 242 250 256 255 253 253 255 257 259 260 262 262 263 264 264 266 267 269 270 271 272 273 274
236 236 238 237 234 234 234 235 236 235 236 236 234 233 233 233 234 237 240 241 242 243 245 246 244 242 243 244 241 238 237 234 237 241 238 233 229 224 221 219 218 220 227 233 237 239 237 237 237 239 241 243 247 248 247 246 248 253 254 252 251 247 239 235 240 247 251 252 253 253 255 257 259 260 261 263 264 265 265 266 268 270 271 272 273 274
235 234 235 236 236 235 233 232 235 235 234 235 234 234 233 232 232 235 237 240 241 241 242 244 244 241 240 240 238 238 241 238 237 240 232 223 224 225 226 225 222 225 230 231 233 236 238 240 241 243 245 248 251 251 248 246 246 250 252 252 251 249 245 241 240 244 249 252 252 251 253 256 257 259 261 263 264 264 265 265 266 267 268 270 271 272
233 232 231 233 236 237 235 233 234 235 235 236 236 237 236 234 233 234 235 237 240 242 242 242 243 241 239 240 237 237 241 241 238 236 231 227 228 227 227 227 222 221 227 230 230 233 237 240 244 245 245 247 250 251 249 246 246 248 251 251 252 251 249 247 246 245 248 250 250 250 252 254 257 258 260 262 263 263 264 264 264 265 265 265 266 267
232 229 227 227 230 231 232 233 234 236 238 238 236 236 237 237 236 235 235 236 237 241 244 243 242 242 241 241 240 235 234 234 234 236 236 235 236 234 230 231 231 230 232 233 235 237 238 239 242 244 244 246 248 250 250 247 246 248 250 252 253 253 253 252 251 250 251 252 252 252 253 254 256 258 259 260 262 262 263 264 264 263 263 263 263 264
233 229 224 222 225 226 227 231 234 235 237 238 236 235 236 237 237 236 236 236 236 238 242 244 243 244 243 243 242 235 227 224 226 234 245 245 243 242 239 236 236 235 234 236 238 241 242 242 243 243 242 245 248 250 251 249 248 248 249 250 250 248 248 248 249 251 252 253 254 255 256 257 257 258 259 259 260 261 262 263 263 263 263 263 263 264
234 232 227 223 223 224 227 230 232 233 234 237 239 238 237 237 237 237 237 237 238 238 241 243 243 243 244 243 243 237 231 228 224 222 235 243 241 241 240 238 236 233 232 234 236 239 242 244 245 243 242 244 248 250 251 251 251 251 250 249 246 243 244 247 250 253 255 255 257 259 260 261 260 260 260 259 259 260 261 262 263 263 263 264 264 265
236 235 233 230 226 225 226 228 231 233 232 233 236 237 237 236 236 238 239 239 239 239 241 243 243 241 240 240 241 238 234 234 229 220 220 230 234 236 236 237 238 236 235 236 237 239 240 241 241 242 243 246 248 249 250 251 253 255 253 251 249 248 248 248 250 253 255 256 256 255 256 258 259 260 261 260 259 260 261 261 262 263 263 264 264 265
236 237 237 235 232 229 227 227 229 233 232 231 233 235 236 236 237 238 239 240 240 240 240 242 244 244 242 239 239 237 230 226 228 227 226 229 232 235 236 235 237 238 239 241 242 242 242 242 242 242 245 248 248 247 248 249 251 251 250 247 246 247 249 249 249 251 252 252 251 250 250 252 254 256 258 261 261 260 260 260 261 262 263 264 265 267
235 237 237 237 237 235 232 229 228 231 233 231 231 235 236 237 239 240 241 240 240 241 241 240 240 242 242 240 239 235 228 222 225 231 234 235 236 238 239 239 241 243 244 246 247 247 247 247 247 246 246 248 248 247 247 247 247 246 245 245 245 245 247 248 247 246 246 246 247 248 249 250 251 253 256 260 262 262 261 261 261 262 264 265 267 268
235 236 237 238 239 238 237 235 231 231 234 234 233 235 236 235 236 239 243 246 247 245 243 240 238 238 239 240 240 239 235 231 231 233 236 237 239 241 242 243 245 247 249 250 250 250 249 249 249 248 248 248 249 249 248 247 246 246 245 246 245 245 245 244 242 241 242 245 247 247 247 248 250 251 254 256 259 261 262 263 263 264 265 266 267 268
234 235 235 236 237 238 238 238 236 235 236 237 236 237 237 235 232 230 231 238 244 246 246 244 241 240 240 242 242 242 241 239 237 238 238 238 239 241 242 243 245 248 250 251 251 251 250 250 249 249 249 249 250 251 251 251 250 250 250 249 249 248 247 246 246 244 244 247 250 250 248 248 249 250 251 253 256 258 260 262 264 265 266 268 269 269
234 233 234 235 234 235 237 238 238 238 238 239 238 238 239 239 236 231 225 222 227 232 237 241 242 241 240 242 241 240 242 242 241 242 242 241 241 241 241 243 245 246 248 249 250 251 251 251 250 250 250 251 251 252 253 253 253 254 254 254 253 252 251 250 249 248 247 248 251 253 252 251 250 251 252 254 256 257 259 260 262 265 267 267 268 268
236 234 234 235 233 233 236 237 238 239 239 240 240 239 240 240 238 236 232 227 227 228 229 234 240 241 240 240 241 240 241 243 243 244 244 245 245 245 244 245 246 246 247 249 251 252 253 254 254 254 254 254 253 253 253 253 254 254 255 255 255 254 254 253 252 251 250 249 250 252 254 254 254 254 254 256 257 259 261 262 263 265 267 267 266 266
234 234 234 235 233 233 234 235 237 239 240 241 242 241 241 240 239 238 236 234 234 235 235 235 237 240 241 241 241 241 240 241 243 244 245 247 248 249 248 248 248 249 250 252 253 254 255 256 256 256 256 256 255 255 255 254 254 255 254 255 255 254 254 254 254 253 252 252 252 253 254 255 255 254 255 256 258 259 260 261 263 265 266 266 265 265
233 234 233 234 233 234 235 235 235 237 239 240 241 241 241 241 241 240 240 239 239 239 239 239 239 241 243 243 243 241 240 241 242 244 245 247 249 250 250 249 250 251 252 254 255 256 257 258 258 259 259 259 258 258 257 257 257 257 257 256 255 255 254 254 255 255 254 254 254 255 255 256 256 256 255 256 257 257 258 258 259 261 262 262 263 265
234 236 236 236 236 236 237 236 235 234 236 238 240 241 241 241 242 242 241 242 242 242 241 241 240 242 243 245 246 246 245 245 245 246 247 248 250 251 252 252 252 253 254 255 257 259 260 260 260 260 260 260 260 259 259 260 259 259 259 258 258 257 256 256 256 256 255 255 256 256 256 257 258 258 258 258 258 259 259 259 258 258 258 259 261 264
234 236 238 238 238 238 238 239 238 236 236 238 239 241 242 242 243 243 243 243 243 243 243 243 242 243 245 246 247 248 249 249 249 249 250 251 253 254 254 255 255 256 256 257 258 260 261 261 261 261 261 261 261 261 260 260 260 260 260 260 260 260 259 259 258 258 257 257 257 257 258 258 259 260 260 261 261 262 262 262 261 260 260 260 261 262
232 235 237 237 237 238 239 240 240 240 239 240 241 241 242 242 243 244 243 244 244 244 245 245 244 244 245 246 247 248 249 250 251 251 252 253 254 255 255 257 258 258 258 258 258 259 260 262 263 264 264 264 264 264 263 262 261 262 262 262 262 262 261 261 261 261 260 260 260 260 260 260 260 261 261 261 261 262 262 262 262 262 261 261 262 263
229 231 234 236 236 237 239 240 240 241 241 242 243 243 242 241 242 243 244 244 245 245 246 247 248 246 245 246 247 248 250 251 253 254 254 254 254 254 254 255 256 257 257 258 258 258 259 260 261 263 264 265 266 267 267 267 266 266 265 265 264 264 264 264 264 263 263 262 261 262 262 261 261 261 261 260 260 260 260 261 262 262 261 261 262 263
230 229 231 234 235 236 238 239 240 242 242 243 243 245 245 244 244 245 246 247 247 247 247 249 250 250 250 249 248 249 250 251 252 253 253 254 254 254 254 255 255 256 257 258 259 259 260 260 261 261 263 263 264 265 266 267 268 269 269 269 269 268 268 269 269 269 268 267 267 266 266 266 265 264 263 262 261 259 259 260 261 262 263 263 263 264
231 230 231 233 235 236 237 238 239 241 242 243 243 245 247 247 247 247 249 250 251 251 250 250 250 251 252 252 252 252 251 250 251 251 252 253 254 254 255 255 256 256 257 258 258 259 259 260 260 261 261 262 263 263 264 265 266 267 268 269 270 270 270 270 271 271 272 272 273 273 273 273 272 272 271 269 267 264 262 261 261 263 264 265 265 265
234 233 233 234 236 237 237 238 239 240 241 243 244 245 247 248 249 249 249 250 251 252 252 253 253 253 252 251 251 251 251 251 251 252 253 253 254 254 255 256 256 256 257 257 257 257 257 257 258 258 258 259 260 261 262 262 263 264 265 266 267 268 269 269 270 270 271 272 274 275 275 276 277 277 277 277 276 274 272 270 268 268 268 268 267 267
236 235 235 236 237 238 238 239 240 241 242 244 245 247 248 249 250 250 250 250 250 251 252 253 254 255 255 254 254 253 252 252 252 253 254 255 255 255 256 256 257 257 257 257 257 257 257 257 257 257 257 257 257 258 259 259 260 261 261 262 263 265 266 268 269 270 270 271 272 273 274 275 275 276 276 277 277 277 277 276 275 273 272 272 271 270
238 237 237 237 238 239 239 240 241 242 243 244 245 247 248 248 249 250 251 251 250 250 250 251 252 253 254 255 255 256 255 254 253 253 254 255 256 257 257 257 257 258 258 258 258 258 258 258 258 258 258 259 259 259 259 260 260 261 261 261 262 263 264 266 267 268 270 270 271 271 271 272 272 273 273 273 274 274 275 275 275 275 275 274 274 273
239 239 239 239 240 241 241 242 243 243 244 245 246 247 248 249 250 250 251 251 251 250 250 250 251 251 252 253 254 255 257 257 257 257 257 257 258 258 258 258 259 258 258 259 259 259 259 259 259 259 260 260 261 261 261 262 262 263 263 264 264 264 265 266 267 267 268 269 269 269 269 270 270 270 270 271 271 272 272 273 273 274 274 274 274 273
241 240 240 240 240 241 242 243 244 245 245 246 247 248 249 250 251 252 252 252 252 252 252 251 252 252 253 254 255 255 256 258 258 259 260 260 260 261 261 261 261 261 261 262 262 262 262 262 261 261 261 261 261 261 262 262 262 263 264 265 265 266 266 267 267 267 267 267 267 267 268 268 268 268 268 268 268 269 269 270 270 271 271 272 271 271
244 244 243 243 242 242 242 243 244 245 246 246 248 249 250 251 252 253 253 253 254 254 254 254 254 254 254 255 256 256 257 257 258 258 259 260 261 262 263 263 264 264 265 265 265 266 266 266 266 266 266 265 265 264 264 263 263 263 264 264 265 266 266 266 266 266 267 267 267 268 268 268 269 269 269 270 270 270 270 270 270 270 271 271 271 271
245 246 246 246 246 245 245 245 246 246 247 247 248 249 250 252 252 253 254 255 255 255 255 255 256 256 256 256 257 257 257 257 258 258 259 259 260 261 262 263 264 264 265 265 266 266 266 267 267 267 267 267 268 268 268 268 268 268 268 268 269 269 268 269 269 269 269 270 270 270 270 270 270 270 271 271 272 272 272 272 272 272 272 272 271 271
245 246 246 247 247 247 248 248 249 249 250 250 251 252 252 253 253 254 255 256 256 257 257 257 258 258 258 258 259 259 259 259 259 259 260 260 260 261 261 262 262 263 263 264 264 265 265 266 266 266 266 266 267 267 267 268 269 269 270 270 270 270 270 270 271 271 272 272 272 272 273 273 273 273 272 272 272 272 272 273 273 273 272 272 271 271
247 247 247 247 248 248 248 248 248 248 249 250 251 252 253 254 254 256 256 257 258 258 259 259 259 260 260 261 261 262 262 262 262 262 262 261 261 261 262 262 262 263 263 263 263 264 265 265 265 266 266 266 266 267 267 268 268 268 269 269 269 269 270 270 270 271 271 272 272 273 273 273 274 274 274 274 273 273 273 273 273 273 272 272 272 271
250 249 249 249 249 249 249 249 249 248 248 248 248 249 251 252 253 254 255 256 257 258 258 259 259 260 260 261 262 262 263 263 263 263 263 262 262 262 262 262 262 263 263 263 264 264 264 265 265 266 266 266 267 267 267 268 268 268 268 269 269 269 269 270 270 270 271 271 272 272 273 273 274 274 274 274 274 274 273 273 273 273 273 273 272 272